When you browse on this site, cookies collect data to enhance your experience and personalize the content and advertising you see.
Visit our Privacy Policy to learn more. By continuing to use the site, you agree to this use of cookies and data.

Météo par heure à Uilmington

Ce jour, 13 Août, Jeudi

Heure Température Précipitation Vent Pression Humidité
00:00 +27°C° 0.2 mm 1 m/s 762 mmHg 82%
01:00 +25°C° 0.2 mm 0 m/s 762 mmHg 82%
02:00 +24°C° 0.1 mm 0 m/s 762 mmHg 83%
03:00 +24°C° 0.1 mm 0 m/s 762 mmHg 84%
04:00 +24°C° 0.1 mm 0 m/s 762 mmHg 85%
05:00 +26°C° 0.1 mm 1 m/s 762 mmHg 84%
06:00 +26°C° 0.1 mm 1 m/s 762 mmHg 83%
07:00 +27°C° 0.1 mm 1 m/s 763 mmHg 82%
08:00 +28°C° 0.8 mm 1 m/s 763 mmHg 79%
09:00 +29°C° 0.8 mm 1 m/s 763 mmHg 75%
10:00 +30°C° 0.8 mm 1 m/s 763 mmHg 72%
11:00 +29°C° 1.5 mm 1 m/s 763 mmHg 76%
12:00 +28°C° 1.5 mm 2 m/s 762 mmHg 80%
13:00 +27°C° 1.5 mm 2 m/s 762 mmHg 84%
14:00 +27°C° 0.3 mm 2 m/s 762 mmHg 83%
15:00 +27°C° 0.3 mm 2 m/s 762 mmHg 82%
16:00 +27°C° 0.3 mm 1 m/s 761 mmHg 81%
17:00 +27°C° 0.1 mm 1 m/s 761 mmHg 81%
18:00 +26°C° 0.1 mm 1 m/s 762 mmHg 81%
19:00 +26°C° 0.1 mm 1 m/s 762 mmHg 82%
20:00 +26°C° 0.2 mm 1 m/s 762 mmHg 82%
21:00 +26°C° 0.2 mm 1 m/s 762 mmHg 83%
22:00 +26°C° 0.2 mm 1 m/s 762 mmHg 83%
23:00 +26°C° 0 mm 2 m/s 762 mmHg 83%

Demain, 14 Août, Vendredi

Heure Température Précipitation Vent Pression Humidité
00:00 +26°C° 0 mm 2 m/s 761 mmHg 83%
01:00 +26°C° 0 mm 2 m/s 761 mmHg 83%
02:00 +26°C° 0 mm 2 m/s 761 mmHg 83%
03:00 +26°C° 0 mm 2 m/s 761 mmHg 83%
04:00 +25°C° 0 mm 2 m/s 761 mmHg 83%
05:00 +26°C° 0 mm 2 m/s 761 mmHg 82%
06:00 +26°C° 0 mm 3 m/s 761 mmHg 82%
07:00 +26°C° 0 mm 3 m/s 761 mmHg 81%
08:00 +27°C° 0 mm 3 m/s 761 mmHg 76%
09:00 +28°C° 0 mm 3 m/s 761 mmHg 72%
10:00 +29°C° 0 mm 4 m/s 761 mmHg 68%
11:00 +30°C° 0.3 mm 4 m/s 761 mmHg 66%
12:00 +30°C° 0.3 mm 4 m/s 760 mmHg 64%
13:00 +32°C° 0.3 mm 4 m/s 760 mmHg 62%
14:00 +32°C° 0.9 mm 4 m/s 760 mmHg 64%
15:00 +30°C° 0.9 mm 4 m/s 760 mmHg 66%
16:00 +30°C° 0.9 mm 4 m/s 759 mmHg 68%
17:00 +29°C° 0.2 mm 3 m/s 760 mmHg 70%
18:00 +28°C° 0.2 mm 3 m/s 760 mmHg 72%
19:00 +27°C° 0.2 mm 3 m/s 760 mmHg 73%
20:00 +27°C° 0 mm 3 m/s 760 mmHg 74%
21:00 +26°C° 0 mm 3 m/s 760 mmHg 74%
22:00 +26°C° 0 mm 3 m/s 760 mmHg 75%
23:00 +25°C° 0 mm 3 m/s 760 mmHg 75%

Après-demain, 15 Août, Samedi

Heure Température Précipitation Vent Pression Humidité
00:00 +25°C° 0 mm 3 m/s 760 mmHg 76%
01:00 +25°C° 0 mm 3 m/s 760 mmHg 76%
02:00 +25°C° 0 mm 3 m/s 759 mmHg 78%
03:00 +25°C° 0 mm 3 m/s 759 mmHg 80%
04:00 +24°C° 0 mm 3 m/s 759 mmHg 82%
05:00 +25°C° 0 mm 4 m/s 760 mmHg 81%
06:00 +25°C° 0 mm 4 m/s 760 mmHg 81%
07:00 +25°C° 0 mm 4 m/s 760 mmHg 81%
08:00 +26°C° 0 mm 5 m/s 760 mmHg 79%
09:00 +26°C° 0 mm 5 m/s 760 mmHg 77%
10:00 +27°C° 0 mm 5 m/s 760 mmHg 75%
11:00 +27°C° 0.1 mm 5 m/s 760 mmHg 74%
12:00 +27°C° 0.1 mm 5 m/s 760 mmHg 74%
13:00 +27°C° 0.1 mm 5 m/s 760 mmHg 74%
14:00 +27°C° 0 mm 5 m/s 760 mmHg 74%
15:00 +26°C° 0 mm 5 m/s 759 mmHg 74%
16:00 +26°C° 0 mm 5 m/s 759 mmHg 75%
17:00 +26°C° 0 mm 5 m/s 759 mmHg 74%
18:00 +26°C° 0 mm 5 m/s 759 mmHg 74%
19:00 +25°C° 0 mm 5 m/s 759 mmHg 74%
20:00 +25°C° 0 mm 5 m/s 759 mmHg 74%
21:00 +25°C° 0 mm 5 m/s 759 mmHg 75%
22:00 +24°C° 0 mm 6 m/s 759 mmHg 75%
23:00 +24°C° 0.2 mm 6 m/s 759 mmHg 78%

16 Août, Dimanche

Heure Température Précipitation Vent Pression Humidité
00:00 +24°C° 0.2 mm 6 m/s 759 mmHg 81%
01:00 +23°C° 0.2 mm 6 m/s 758 mmHg 84%
02:00 +23°C° 2 mm 6 m/s 758 mmHg 86%
03:00 +23°C° 2 mm 6 m/s 758 mmHg 88%
04:00 +23°C° 2 mm 6 m/s 758 mmHg 91%
05:00 +22°C° 2.3 mm 6 m/s 758 mmHg 91%
06:00 +22°C° 2.3 mm 6 m/s 758 mmHg 91%
07:00 +22°C° 2.3 mm 6 m/s 758 mmHg 91%
08:00 +22°C° 2.5 mm 6 m/s 758 mmHg 91%
09:00 +22°C° 2.5 mm 6 m/s 758 mmHg 91%
10:00 +22°C° 2.5 mm 6 m/s 757 mmHg 91%
11:00 +22°C° 1.3 mm 5 m/s 757 mmHg 91%
12:00 +23°C° 1.3 mm 5 m/s 757 mmHg 91%
13:00 +23°C° 1.3 mm 5 m/s 757 mmHg 91%
14:00 +25°C° 1 mm 4 m/s 756 mmHg 90%
15:00 +26°C° 1 mm 4 m/s 756 mmHg 88%
16:00 +27°C° 1 mm 4 m/s 755 mmHg 87%
17:00 +26°C° 0.4 mm 4 m/s 755 mmHg 88%
18:00 +26°C° 0.4 mm 3 m/s 755 mmHg 89%
19:00 +26°C° 0.4 mm 3 m/s 755 mmHg 91%
20:00 +25°C° 0.1 mm 3 m/s 755 mmHg 91%
21:00 +25°C° 0.1 mm 3 m/s 755 mmHg 92%
22:00 +24°C° 0.1 mm 3 m/s 755 mmHg 93%
23:00 +24°C° 0 mm 2 m/s 755 mmHg 93%

17 Août, Lundi

Heure Température Précipitation Vent Pression Humidité
00:00 +24°C° 0 mm 2 m/s 755 mmHg 94%
01:00 +24°C° 0 mm 2 m/s 755 mmHg 94%
02:00 +23°C° 0 mm 2 m/s 755 mmHg 94%
03:00 +23°C° 0 mm 2 m/s 755 mmHg 93%
04:00 +23°C° 0 mm 2 m/s 755 mmHg 93%
05:00 +23°C° 0 mm 2 m/s 755 mmHg 91%
06:00 +24°C° 0 mm 3 m/s 755 mmHg 89%
07:00 +24°C° 0 mm 3 m/s 755 mmHg 87%
08:00 +26°C° 0 mm 3 m/s 756 mmHg 81%
09:00 +27°C° 0 mm 3 m/s 756 mmHg 75%
10:00 +29°C° 0 mm 3 m/s 756 mmHg 69%
11:00 +29°C° 0 mm 3 m/s 756 mmHg 67%
12:00 +29°C° 0 mm 4 m/s 756 mmHg 65%
13:00 +30°C° 0 mm 4 m/s 755 mmHg 63%
14:00 +30°C° 0 mm 4 m/s 755 mmHg 63%
15:00 +30°C° 0 mm 4 m/s 755 mmHg 62%
16:00 +30°C° 0 mm 4 m/s 755 mmHg 62%
17:00 +29°C° 0 mm 4 m/s 755 mmHg 65%
18:00 +27°C° 0 mm 3 m/s 756 mmHg 67%
19:00 +26°C° 0 mm 3 m/s 756 mmHg 70%
20:00 +26°C° 0 mm 3 m/s 756 mmHg 70%
21:00 +25°C° 0 mm 2 m/s 757 mmHg 70%
22:00 +24°C° 0 mm 2 m/s 757 mmHg 70%
23:00 +24°C° 0 mm 2 m/s 757 mmHg 71%

18 Août, Mardi

Heure Température Précipitation Vent Pression Humidité
00:00 +24°C° 0 mm 1 m/s 757 mmHg 72%
01:00 +23°C° 0 mm 1 m/s 757 mmHg 74%
02:00 +23°C° 0 mm 2 m/s 757 mmHg 75%
03:00 +23°C° 0 mm 2 m/s 757 mmHg 75%
04:00 +21°C° 0 mm 2 m/s 757 mmHg 76%
05:00 +23°C° 0 mm 2 m/s 757 mmHg 75%
06:00 +23°C° 0 mm 2 m/s 758 mmHg 74%
07:00 +24°C° 0 mm 2 m/s 758 mmHg 73%
08:00 +25°C° 0 mm 2 m/s 759 mmHg 67%
09:00 +26°C° 0 mm 3 m/s 759 mmHg 62%
10:00 +28°C° 0 mm 3 m/s 759 mmHg 56%
11:00 +28°C° 0 mm 3 m/s 759 mmHg 53%
12:00 +29°C° 0 mm 3 m/s 759 mmHg 49%
13:00 +30°C° 0 mm 3 m/s 759 mmHg 45%
14:00 +30°C° 0 mm 3 m/s 759 mmHg 46%
15:00 +29°C° 0 mm 3 m/s 759 mmHg 47%
16:00 +29°C° 0 mm 3 m/s 758 mmHg 48%
17:00 +28°C° 0 mm 3 m/s 759 mmHg 51%
18:00 +27°C° 0 mm 3 m/s 759 mmHg 54%
19:00 +25°C° 0 mm 2 m/s 759 mmHg 57%
20:00 +25°C° 0 mm 2 m/s 759 mmHg 58%
21:00 +24°C° 0 mm 2 m/s 760 mmHg 60%
22:00 +23°C° 0 mm 1 m/s 760 mmHg 61%
23:00 +23°C° 0 mm 1 m/s 760 mmHg 62%
Voir plus